CubeBel-2 (EU11S)
1 57175U 23091K   26114.82942838  .00010400  00000-0  38428-3 0  9991
2 57175  97.5090 177.6124 0008486 307.6036  52.4432 15.27888063156152
RS-38S
1 57189U 23091Z   26114.82838366  .00013675  00000-0  41354-3 0  9995
2 57189  97.5120 183.3079 0006088 253.6316 106.4258 15.34317462156504
SONATE-2
1 59112U 24043Q   26114.85160603  .00031309  00000-0  46887-3 0  9996
2 59112  97.5478 262.1578 0006807  45.6305 314.5505 15.54890869119598
GRBBeta
1 60237U 24128C   26114.78568881  .00003094  00000-0  21970-3 0  9998
2 60237  61.9911  43.5611 0047187 123.3748 237.1873 15.06194962 98227
Curium One
1 60242U 24128H   26114.86967334  .00006851  00000-0  40340-3 0  9995
2 60242  61.9801  34.4897 0047021 119.6781 240.9008 15.11634449 98393
ROBUSTA-3A
1 60243U 24128J   26114.87148812  .00007015  00000-0  42163-3 0  9997
2 60243  61.9878  36.6649 0048024 117.2408 243.3591 15.10819535 98362
CatSat
1 60246U 24125J   26114.10859494  .00036196  00000-0  57197-3 0  9993
2 60246  97.2154 326.1287 0024247  26.9422 333.3084 15.53056368 98981
HYPERVIEW-1G (RS66S)
1 61772U 24199AP  26114.83411007  .00075418  00000-0  76890-3 0  9994
2 61772  97.2989 352.3181 0009443 110.2997 249.9279 15.64809659126308
AO-123
1 61781U 24199AY  26114.84987176  .00006969  00000-0  20770-3 0  9991
2 61781  97.3079 344.0106 0015383 135.4329 224.8154 15.34868939125746
JINJUSat 1B
1 63210U 25052A   26114.67421698  .00013150  00000-0  43038-3 0  9994
2 63210  97.4059  11.4105 0001191 285.8528  74.2582 15.31810734 61907
NUSHSAT 1
1 63211U 25052B   26114.66610021  .00016456  00000-0  50431-3 0  9991
2 63211  97.4035  11.8008 0000945 305.5868  54.5286 15.33865385 61930
TEVEL2-4
1 63213U 25052D   26114.68014588  .00014354  00000-0  45653-3 0  9996
2 63213  97.3956  11.0439 0001192   2.7343 357.3905 15.32710727 61910
TEVEL2-5
1 63214U 25052E   26114.69511315  .00013793  00000-0  44079-3 0  9995
2 63214  97.3957  11.0211 0001212 359.4499   0.6742 15.32564714 61917
TEVEL2-6
1 63215U 25052F   26114.70614145  .00014643  00000-0  46833-3 0  9998
2 63215  97.3964  11.0174 0001260 358.0784   2.0453 15.32527318 61913
TEVEL2-1
1 63217U 25052H   26114.65246104  .00014119  00000-0  45836-3 0  9990
2 63217  97.3936  10.6484 0001920   7.1887 352.9382 15.32054636 61895
TEVEL2-3
1 63218U 25052J   26114.64883453  .00014509  00000-0  47028-3 0  9992
2 63218  97.3940  10.6603 0001933   9.4847 350.6431 15.32099607 61896
TEVEL2-2
1 63219U 25052K   26114.65300725  .00014401  00000-0  46735-3 0  9995
2 63219  97.3936  10.6506 0001974   7.9657 352.1615 15.32060469 61896
TEVEL2-9
1 63237U 25052AD  26114.69473412  .00012642  00000-0  43443-3 0  9991
2 63237  97.3997  10.1766 0005576 352.1476   7.9676 15.30230310 61841
TEVEL2-7
1 63238U 25052AE  26114.66071917  .00013029  00000-0  45111-3 0  9997
2 63238  97.3998  10.0797 0005661 352.1095   8.0056 15.29975565 61837
TEVEL2-8
1 63239U 25052AF  26114.66836212  .00012815  00000-0  44403-3 0  9990
2 63239  97.4000  10.0660 0005723 352.9725   7.1434 15.29956669 61833
HYDRA-W
1 63490U 25052BL  26112.26439385  .02130398  41366-2  26477-2 0  9994
2 63490  97.3739  16.4004 0007524 180.8298 179.2974 16.08789288 62061
HADES-ICM (SO-125)
1 63492U 25052BN  26114.71952330  .00287832  00000-0  18108-2 0  9992
2 63492  97.3833  17.4224 0003045 119.3515 240.8055 15.75884874 62342
SPIRONE
1 66657U 25274H   26114.78784503  .00001325  00000-0  13172-3 0  9994
2 66657  97.7467  44.8567 0011809 184.5605 175.5509 14.93318031 22250
K-HERO
1 66660U 25274L   26114.33868955  .00001650  00000-0  16096-3 0  9992
2 66660  97.7474  44.5351 0013551 191.6256 168.4653 14.93750062 22195
SNUGLITE-III DURI
1 66661U 25274M   26114.79720152  .00001154  00000-0  11397-3 0  9997
2 66661  97.7472  45.0055 0014180 191.7313 168.3579 14.93814421 22269
SilverSat
1 66909U 98067XV  26113.44966717  .07226154  12288-4  11979-2 0  9998
2 66909  51.6027 190.0749 0007952 333.4666  26.5949 16.32457272 22308
SAKHACUBE-CHOLBON
1 67290U 25313AU  26114.85842867  .00008072  00000-0  33696-3 0  9997
2 67290  97.3946 190.5966 0009922 174.7043 185.4300 15.23871361 17857
RS95S (QMR-KWT-2)
1 67291U 25313AV  26114.75681941  .00011562  00000-0  46753-3 0  9997
2 67291  97.3946 190.5782 0009763 174.4746 185.6601 15.24840343 17846
Ten-Koh2
1 68261U 25241B   26114.29412781  .00006162  00000-0  27069-3 0  9997
2 68261  51.6455 216.0197 0005448 329.8939  30.1725 15.23192165  6695
JACK-002
1 68417U 26067B   26114.34323352  .00005481  00000-0  26749-3 0  9995
2 68417  97.4529  73.6427 0004103  98.1475 262.0225 15.18691837  3770
DISCO 2
1 68431U 26067R   26114.35075003  .00005460  00000-0  26990-3 0  9994
2 68431  97.4566  73.6451 0003073 138.4070 221.7398 15.18249303  3778
HADES-SA (SpinnyONE)
1 68446U 26067AG  26113.57965593  .00014160  00000-0  71504-3 0  9993
2 68446  97.4374  72.7854 0004613 262.3790  97.6920 15.17192733  3645
PARUS-6U1
1 68456U 26067AS  26114.10781177  .00004846  00000-0  24907-3 0  9993
2 68456  97.4515  73.3424 0003835 243.3545 116.7296 15.16929333  3737
SAL-E
1 68458U 26067AU  26113.71226441  .00006359  00000-0  32553-3 0  9996
2 68458  97.4442  72.9316 0003875 259.9906 100.0890 15.16952377  3674
IO-86
1 40931U          25360.30710720  .00000000  00000-0  12800-3 0    00
2 40931   6.0006 332.5373 0012733 338.8432   8.1437 14.79075515    01
LILIUM-4                
1 71922C 26067AC  26089.50133053 -.00014632  00000+0 -74472-3 0    04
2 71922  97.4497  49.1617 0004341   5.9603 355.7042 15.16896692    16
